Location: Newark
(43.6583°N, 1.6617°E)
Time: 07:02:01
(UTC+00:00)

Courier 1B - Pass Details

Date: 26 August 2019
Orbit: 962 x 1209 km, 28.3° (Epoch: 16 September)

Event Time Altitude Azimuth Distance (km) Brightness Sun altitude
Rises 19:21:59 0° 250° (WSW) 3,755 11.4 -8.0°
Reaches altitude 10° 19:25:43 10° 232° (SW) 2,761 10.3 -8.7°
Maximum altitude 19:29:46 17° 193° (SSW) 2,250 9.3 -9.3°
Drops below altitude 10° 19:33:46 10° 155° (SSE) 2,696 9.4 -10.0°
Enters shadow 19:34:54 - 148° (SSE) 2,959 9.5 -10.2°
Sets 19:37:21 0° 136° (SE) 3,629 - -10.6°
